Location: Unspecified
(44.4377°N, 88.0525°W)
Time: 20:22:19
(UTC-05:00)

Okean 3 - Pass Details

Date: 24 April 2019
Orbit: 576 x 602 km, 82.5° (Epoch: 26 May)

Event Time Altitude Azimuth Distance (km) Brightness Sun altitude
Exits shadow 02:56:12 13° 312° (NW) 1,731 5.9 -26.0°
Drops below altitude 10° 02:57:18 10° 326° (NW) 1,922 6.3 -25.9°
Sets 03:00:26 0° 351° (N) 2,822 7.6 -25.6°
